Torna al catalogo

DELTA 1 DEB

AttivoSSO
NORAD 42091·DEBRIS·🇺🇸 United States

Lanciato Dec 15, 1968 da Vandenberg Space Force Base

Loading…

Prossimi Passaggi (prossime 24 ore)

TLE

AggiornatoSource: Space-Track

Epoca: Sep 12, 2026, 16:26 UTC

1 42091U 68114T   26255.68537233  .00000013  00000-0  37779-3 0  9993
2 42091 101.4960 228.4240 0036357 131.4785  41.5809 12.47227537583029

Traccia DELTA 1 DEB in tempo reale con AllMySat

Download on the App Store